Mason City, IA

6:56 PM CDT on August 22, 2017 (GMT -0500)
Mason City Municipal

Weather History for KMCW - February, 2013

Change the Weather History Date:

Saturday, February 9, 2013

  Actual Average Record
Temperature  
Mean Temperature 29 °F 19 °F  
Max Temperature 31 °F 28 °F 58 °F (1976)
Min Temperature 26 °F 10 °F -35 °F (1899)
Degree Days  
Heating Degree Days 36 46  
Month to date heating degree days 411 426  
Since 1 July heating degree days 4733 5037  
Cooling Degree Days 0 0  
Month to date cooling degree days 0 0  
Year to date cooling degree days 0 0  
Moisture  
Dew Point 24 °F    
Average Humidity 87    
Maximum Humidity 92    
Minimum Humidity 81    
Precipitation  
Precipitation 0.00 in 0.03 in 0.73 in (1939)
Month to date precipitation 0.02 0.28  
Year to date precipitation 0.49 1.10  
Snow  
Snow 0.00 in 0.30 in 6.00 in (1909)
Month to date snowfall 1.0 2.9  
Since 1 July snowfall 14.2 27.7  
Snow Depth 1.00 in    
Sea Level Pressure  
Sea Level Pressure 30.09 in    
Wind  
Wind Speed 18 mph (SSE)    
Max Wind Speed 26 mph    
Max Gust Speed 32 mph    
Visibility 7 miles    
Events      
T = Trace of Precipitation, MM = Missing Value Source: NWS Daily Summary

Daily Weather History Graph

Daily Weather History Graph

Search for Another Location

Airport or City:

Trip Planner

Search our weather history database for the weather conditions in past years. The results will help you decide how hot, cold, wet, or windy it might be!

Date:

Astronomy

Feb. 09, 2013 Rise Set
Actual Time 7:18 AM CST 5:36 PM CST
Civil Twilight 6:49 AM CST 6:06 PM CST
Nautical Twilight 6:15 AM CST 6:39 PM CST
Astronomical Twilight 5:42 AM CST 7:13 PM CST
Moon 6:30 AM CST (2/9) 5:21 PM CST (2/9)
Length of Visible Light 11h 17m
Length of Day
10h 17m
Waning Crescent, 0% of the Moon is Illuminated
Feb 9
Waning Crescent
Feb 10
New
Feb 17
First Quarter
Feb 25
Full
Mar 4
Last Quarter

Hourly Weather History & Observations

Time (CST) Temp. Windchill Dew Point Humidity Pressure Visibility Wind Dir Wind Speed Gust Speed Precip Events Conditions
12:53 AM 26.1 °F 15.0 °F 21.0 °F 81% 30.27 in 10.0 mi SSE 12.7 mph - N/A   Overcast
1:14 AM 26.6 °F 15.2 °F 21.2 °F 80% 30.23 in 10.0 mi SSE 13.8 mph - N/A   Overcast
1:53 AM 26.1 °F 13.1 °F 21.0 °F 81% 30.27 in 10.0 mi South 17.3 mph - N/A   Overcast
2:53 AM 26.1 °F 15.0 °F 21.9 °F 84% 30.26 in 9.0 mi SSE 12.7 mph - N/A   Overcast
3:53 AM 26.1 °F 13.1 °F 21.9 °F 84% 30.22 in 8.0 mi SSE 17.3 mph - N/A   Overcast
4:53 AM 26.1 °F 12.3 °F 21.9 °F 84% 30.20 in 8.0 mi SSE 19.6 mph 28.8 mph N/A   Overcast
5:53 AM 26.1 °F 12.7 °F 21.9 °F 84% 30.19 in 7.0 mi SSE 18.4 mph - N/A   Overcast
6:53 AM 26.1 °F 12.3 °F 21.9 °F 84% 30.17 in 7.0 mi South 19.6 mph - N/A   Overcast
7:53 AM 26.1 °F 12.3 °F 21.9 °F 84% 30.17 in 6.0 mi South 19.6 mph 31.1 mph N/A   Overcast
8:53 AM 27.0 °F 15.2 °F 21.9 °F 81% 30.17 in 5.0 mi SSE 15.0 mph 25.3 mph N/A   Haze
9:53 AM 28.0 °F 14.9 °F 24.1 °F 85% 30.15 in 5.0 mi SSE 19.6 mph - N/A   Overcast
10:53 AM 28.9 °F 16.1 °F 25.0 °F 85% 30.15 in 6.0 mi South 19.6 mph 27.6 mph N/A   Overcast
11:53 AM 30.0 °F 19.1 °F 26.1 °F 85% 30.12 in 6.0 mi SSE 15.0 mph 27.6 mph N/A   Overcast
12:53 PM 30.0 °F 17.9 °F 26.1 °F 85% 30.09 in 5.0 mi SSE 18.4 mph 24.2 mph N/A   Overcast
1:53 PM 30.9 °F 19.1 °F 26.1 °F 82% 30.05 in 6.0 mi SSE 18.4 mph 27.6 mph N/A   Haze
2:53 PM 30.9 °F 19.4 °F 27.0 °F 85% 30.03 in 6.0 mi SSE 17.3 mph 27.6 mph N/A   Overcast
3:53 PM 30.0 °F 17.2 °F 27.0 °F 88% 30.00 in 5.0 mi SSE 20.7 mph 25.3 mph N/A   Overcast
4:53 PM 30.0 °F 17.9 °F 26.1 °F 85% 29.98 in 4.0 mi SSE 18.4 mph - N/A   Overcast
5:53 PM 28.9 °F 16.9 °F 26.1 °F 89% 29.97 in 5.0 mi SE 17.3 mph 26.5 mph N/A   Overcast
6:53 PM 28.9 °F 16.1 °F 25.0 °F 85% 29.98 in 5.0 mi SSE 19.6 mph - N/A   Overcast
7:53 PM 28.9 °F 15.4 °F 25.0 °F 85% 29.97 in 7.0 mi SSE 21.9 mph 27.6 mph N/A   Overcast
8:53 PM 28.9 °F 15.8 °F 25.0 °F 85% 29.97 in 7.0 mi SSE 20.7 mph 28.8 mph N/A   Overcast
9:53 PM 30.0 °F 19.1 °F 26.1 °F 85% 29.94 in 6.0 mi SE 15.0 mph 25.3 mph N/A   Overcast
10:53 PM 30.0 °F 19.1 °F 26.1 °F 85% 29.91 in 6.0 mi SE 15.0 mph - N/A   Overcast
11:53 PM 30.0 °F 19.1 °F 26.1 °F 85% 29.91 in 6.0 mi SE 15.0 mph - N/A   Overcast